Погода в Аксае

Россия / Волгоградская область     47°57′17″N   43°57′49″E
темп.,
°C
ветер,
м/с
пор.,
м/с
влажн.,
%
обл.,
%
осадки,
мм/ч
давл.,
гПа
погр.,
м
24 сентября, пт
пт2400:00+11ссв1171100 0.0 101216
03:00+12ссв3464100 0.0 1012203
06:00+12св3464100 0.0 1012216
09:00+13с2256100 0.0 1012526
12:00+14зюз1253100 0.1 1012981
15:00+15зюз4550100 0.1 10111095
18:00+13юз476098 0.0 1012219
21:00+11ююз487016 0.0 1012176
25 сентября, сб
сб2500:00+12зюз4973100 0.0 1011329
03:00+11ююз4874100 0.0 1011192
06:00+11ююз4977100 0.1 1010444
09:00+11ююз71183100 0.1 1010526
12:00+12ююз71177100 0.4 1010898
15:00+15юз91161100 0.6 10101293
18:00+13юз6106995 0.3 1011384
21:00+12юз6107797 0.3 1012278
26 сентября, вс
вс2600:00+11з358118 0.0 101380
03:00+11зюз3680100 0.1 1014177
06:00+10з4108414 0.1 1014231
09:00+13зюз796697 0.1 1014798
12:00+16з101047100 0.1 10131843
15:00+12зюз71179100 0.6 1012960
18:00+13зюз7118896 1.4 1010757
21:00+13з7138118 2.8 1008515
27 сентября, пн
пн2700:00+12зсз713812 0.2 1009543
03:00+10зсз813855 0.2 1010599
06:00+8зсз712875 0.0 1011553
09:00+11зсз8106924 0.0 1012787
12:00+13зсз895275 0.1 10131677
15:00+14сз785295 0.2 10141650
18:00+13сз4758100 0.1 1015690
21:00+12ссз4775100 0.1 1016462
28 сентября, вт
вт2800:00+11ссз4781100 0.3 1017367
03:00+11ссз4681100 0.4 1018307
06:00+10с3681100 0.0 1020274
09:00+11ссв4574100 0.0 1021396
12:00+14св446384 0.0 10221092
15:00+13св555976 0.1 10231041
18:00+12св5561100 0.0 1025691
21:00+10св36625 0.0 1026176